NASA966 KTTS-KTTS

Flight info

Callsign NASA966
Flight time N/A
Altitude 41000
Route ARTEMIS
Aircraft T38/M-SDFOVY/A

Departure

Time 2026-05-08 21:56
Airport Space Florida Launch and Landing Facility (KTTS)

Arrival

Time N/A
Airport Space Florida Launch and Landing Facility (KTTS)
Time Latitude Longitude Altitude Speed Heading
2026-05-08 21:38 28.59977 -80.68010 15 ft 0 kts 163°
2026-05-08 21:52 28.59956 -80.68009 15 ft 5 kts 194°
2026-05-08 21:52 28.59916 -80.68022 15 ft 7 kts 198°
2026-05-08 21:52 28.59862 -80.68044 15 ft 9 kts 200°
2026-05-08 21:53 28.59794 -80.68074 15 ft 11 kts 208°
2026-05-08 21:53 28.59745 -80.68144 14 ft 13 kts 274°
2026-05-08 21:53 28.59754 -80.68198 14 ft 7 kts 281°
2026-05-08 21:53 28.59764 -80.68258 15 ft 8 kts 281°
2026-05-08 21:54 28.59783 -80.68320 15 ft 8 kts 317°
2026-05-08 21:54 28.59796 -80.68332 15 ft 0 kts 322°
2026-05-08 21:55 28.59860 -80.68378 15 ft 36 kts 330°
2026-05-08 21:56 28.61315 -80.69330 27 ft 182 kts 330°
2026-05-08 21:56 28.62542 -80.70169 255 ft 238 kts 330°
2026-05-08 21:56 28.64153 -80.71136 1028 ft 283 kts 334°
2026-05-08 21:56 28.65988 -80.72218 2687 ft 306 kts 335°
2026-05-08 21:57 28.68127 -80.73356 2905 ft 376 kts 337°
2026-05-08 21:57 28.70605 -80.74666 3922 ft 407 kts 334°
2026-05-08 21:57 28.73216 -80.76072 3940 ft 425 kts 334°
2026-05-08 21:57 28.75831 -80.77665 4604 ft 419 kts 327°
2026-05-08 21:58 28.78297 -80.79426 5271 ft 419 kts 326°
2026-05-08 21:58 28.80740 -80.81277 5471 ft 423 kts 323°
2026-05-08 21:58 28.83097 -80.83253 5779 ft 425 kts 321°
2026-05-08 21:58 28.85479 -80.85331 5741 ft 434 kts 320°
2026-05-08 21:59 28.87822 -80.87467 6142 ft 432 kts 319°
2026-05-08 21:59 28.90173 -80.89668 6116 ft 440 kts 319°
2026-05-08 21:59 28.92503 -80.91864 6211 ft 431 kts 318°
2026-05-08 21:59 28.94771 -80.94050 6417 ft 423 kts 323°
2026-05-08 22:00 28.97509 -80.95012 6657 ft 417 kts
2026-05-08 22:00 29.00072 -80.94064 8331 ft 362 kts 37°
2026-05-08 22:00 29.01591 -80.91853 9041 ft 360 kts 65°
2026-05-08 22:00 29.02565 -80.89156 8909 ft 373 kts 72°
2026-05-08 22:01 29.03248 -80.86258 8831 ft 383 kts 77°
2026-05-08 22:01 29.03805 -80.83251 8788 ft 390 kts 79°
2026-05-08 22:01 29.04284 -80.80194 8789 ft 395 kts 82°
2026-05-08 22:01 29.04641 -80.77101 9168 ft 387 kts 84°
2026-05-08 22:02 29.04933 -80.74053 9411 ft 386 kts 85°
2026-05-08 22:02 29.05171 -80.70989 9465 ft 390 kts 86°
2026-05-08 22:02 29.05264 -80.67897 9585 ft 390 kts 91°
2026-05-08 22:02 29.05242 -80.64791 9742 ft 389 kts 94°
2026-05-08 22:03 29.05077 -80.61724 10011 ft 386 kts 95°
2026-05-08 22:03 29.04913 -80.58651 10152 ft 387 kts 95°
2026-05-08 22:03 29.04700 -80.55608 10443 ft 382 kts 99°
2026-05-08 22:03 29.04008 -80.52725 10738 ft 375 kts 118°
2026-05-08 22:04 29.02693 -80.50080 10301 ft 392 kts 126°
2026-05-08 22:04 29.01110 -80.47535 10234 ft 396 kts 129°
2026-05-08 22:04 28.99407 -80.45137 10571 ft 387 kts 132°
2026-05-08 22:04 28.97682 -80.42779 10649 ft 389 kts 132°
2026-05-08 22:05 28.95591 -80.41290 11864 ft 326 kts 174°
2026-05-08 22:05 28.93511 -80.41353 13324 ft 287 kts 200°
2026-05-08 22:05 28.91696 -80.42452 14087 ft 312 kts 223°
2026-05-08 22:05 28.90074 -80.44216 14895 ft 336 kts 228°
2026-05-08 22:06 28.88521 -80.46311 15792 ft 353 kts 237°
2026-05-08 22:06 28.87239 -80.48700 17321 ft 356 kts 243°
2026-05-08 22:06 28.86187 -80.51206 18990 ft 344 kts 247°
2026-05-08 22:06 28.85217 -80.53657 20691 ft 339 kts 247°
2026-05-08 22:07 28.84232 -80.56178 21395 ft 361 kts 249°
2026-05-08 22:07 28.83337 -80.59024 21559 ft 392 kts 253°
2026-05-08 22:07 28.82447 -80.62106 21365 ft 431 kts 252°
2026-05-08 22:07 28.81489 -80.65463 21524 ft 457 kts 253°
2026-05-08 22:08 28.80574 -80.69014 22036 ft 476 kts 252°
2026-05-08 22:08 28.79231 -80.72532 22738 ft 496 kts 241°
2026-05-08 22:08 28.77082 -80.75720 23008 ft 525 kts 230°
2026-05-08 22:08 28.74371 -80.78661 23131 ft 556 kts 224°
2026-05-08 22:09 28.71258 -80.81577 20686 ft 609 kts 221°
2026-05-08 22:09 28.67717 -80.84578 20540 ft 630 kts 217°
2026-05-08 22:09 28.64004 -80.87161 22147 ft 631 kts 212°
2026-05-08 22:09 28.60075 -80.89484 22786 ft 643 kts 210°
2026-05-08 22:10 28.55828 -80.91351 22461 ft 669 kts 200°
2026-05-08 22:10 28.51201 -80.92696 20913 ft 704 kts 196°
2026-05-08 22:10 28.46322 -80.93454 20693 ft 711 kts 184°
2026-05-08 22:10 28.41518 -80.92903 22934 ft 656 kts 159°
2026-05-08 22:11 28.38252 -80.89834 28489 ft 591 kts 135°
2026-05-08 22:11 28.36192 -80.85910 32054 ft 583 kts 116°
2026-05-08 22:11 28.35138 -80.81433 32493 ft 602 kts 98°
2026-05-08 22:11 28.34823 -80.76627 32590 ft 620 kts 89°
2026-05-08 22:12 28.35144 -80.71703 32930 ft 631 kts 78°
2026-05-08 22:12 28.36372 -80.66882 32904 ft 646 kts 67°
2026-05-08 22:12 28.38115 -80.62025 30127 ft 701 kts 64°
2026-05-08 22:12 28.40262 -80.56860 27221 ft 739 kts 63°
2026-05-08 22:13 28.42423 -80.51747 28339 ft 687 kts 65°
2026-05-08 22:13 28.44205 -80.47025 31139 ft 627 kts 64°
2026-05-08 22:13 28.46115 -80.42833 33296 ft 575 kts 54°
2026-05-08 22:13 28.48440 -80.39374 35036 ft 536 kts 39°
2026-05-08 22:14 28.51214 -80.36634 35400 ft 527 kts 30°
2026-05-08 22:14 28.54338 -80.34374 34709 ft 538 kts 20°
2026-05-08 22:14 28.57742 -80.32741 34714 ft 532 kts 12°
2026-05-08 22:14 28.61258 -80.31525 35015 ft 523 kts
2026-05-08 22:15 28.64757 -80.30599 35609 ft 510 kts
2026-05-08 22:15 28.68287 -80.29861 35826 ft 509 kts
2026-05-08 22:15 28.71753 -80.29282 36131 ft 502 kts 358°
2026-05-08 22:15 28.75226 -80.28926 36287 ft 500 kts 355°
2026-05-08 22:16 28.78674 -80.28910 36482 ft 490 kts 347°
2026-05-08 22:16 28.82044 -80.29351 36676 ft 485 kts 343°
2026-05-08 22:16 28.85355 -80.29950 36872 ft 484 kts 342°
2026-05-08 22:17 28.91828 -80.32026 35993 ft 496 kts 329°
2026-05-08 22:17 28.94603 -80.34177 35759 ft 471 kts 305°
2026-05-08 22:17 28.96253 -80.37316 34517 ft 467 kts 285°
2026-05-08 22:17 28.97002 -80.40988 32788 ft 483 kts 272°
2026-05-08 22:18 28.96779 -80.44846 31061 ft 498 kts 258°
2026-05-08 22:18 28.95475 -80.48591 29059 ft 520 kts 242°
2026-05-08 22:18 28.93319 -80.51931 27573 ft 531 kts 230°
2026-05-08 22:18 28.90560 -80.54696 27327 ft 519 kts 220°
2026-05-08 22:19 28.87692 -80.56838 29038 ft 461 kts 216°
2026-05-08 22:19 28.85067 -80.58761 28736 ft 452 kts 228°
2026-05-08 22:19 28.82957 -80.61444 28036 ft 452 kts 236°
2026-05-08 22:19 28.81128 -80.64234 28654 ft 426 kts 238°
2026-05-08 22:20 28.79506 -80.66954 29015 ft 411 kts 242°
2026-05-08 22:20 28.78342 -80.69871 28948 ft 400 kts 257°
2026-05-08 22:20 28.78132 -80.73036 28127 ft 412 kts 273°
2026-05-08 22:20 28.78896 -80.76223 27131 ft 434 kts 296°
2026-05-08 22:21 28.81047 -80.78730 26612 ft 459 kts 324°
2026-05-08 22:21 28.84185 -80.79596 26573 ft 485 kts
2026-05-08 22:21 28.87386 -80.78498 27188 ft 479 kts 23°
2026-05-08 22:21 28.90102 -80.76154 26678 ft 506 kts 42°
2026-05-08 22:22 28.92319 -80.72986 26601 ft 511 kts 58°
2026-05-08 22:22 28.93320 -80.70518 27010 ft 504 kts 68°
2026-05-08 22:22 28.94340 -80.66768 27787 ft 486 kts 75°
2026-05-08 22:22 28.95083 -80.63045 28193 ft 479 kts 77°
2026-05-08 22:23 28.95747 -80.59301 28011 ft 486 kts 78°
2026-05-08 22:23 28.96156 -80.55409 27330 ft 504 kts 87°
2026-05-08 22:23 28.96226 -80.51362 26810 ft 516 kts 91°
2026-05-08 22:23 28.96128 -80.47299 27124 ft 505 kts 93°
2026-05-08 22:24 28.95979 -80.43383 27968 ft 483 kts 95°
2026-05-08 22:24 28.95498 -80.39666 28353 ft 468 kts 115°
2026-05-08 22:24 28.94266 -80.36220 28091 ft 477 kts 116°
2026-05-08 22:24 28.92694 -80.32998 26548 ft 436 kts 161°
2026-05-08 22:25 28.89604 -80.32701 24327 ft 466 kts 201°
2026-05-08 22:25 28.86588 -80.33997 24147 ft 454 kts 211°
2026-05-08 22:25 28.83775 -80.35309 25243 ft 421 kts 207°
2026-05-08 22:25 28.81409 -80.36984 22100 ft 388 kts 237°
2026-05-08 22:26 28.80576 -80.40310 14068 ft 561 kts 265°
2026-05-08 22:26 28.80414 -80.44877 13912 ft 513 kts 267°
2026-05-08 22:26 28.80613 -80.48178 19536 ft 350 kts 285°
2026-05-08 22:26 28.81860 -80.50263 23457 ft 299 kts 312°
2026-05-08 22:27 28.83532 -80.51655 25017 ft 296 kts 318°
2026-05-08 22:27 28.85383 -80.52910 25184 ft 327 kts 326°
2026-05-08 22:27 28.87591 -80.54005 24728 ft 371 kts 330°
2026-05-08 22:27 28.89804 -80.55542 24375 ft 375 kts 295°
2026-05-08 22:28 28.90406 -80.58468 23859 ft 396 kts 269°
2026-05-08 22:28 28.89678 -80.61488 23744 ft 420 kts 223°
2026-05-08 22:28 28.86914 -80.61845 25264 ft 434 kts 165°
2026-05-08 22:28 28.84319 -80.59771 24919 ft 488 kts 136°
2026-05-08 22:29 28.82413 -80.56542 25769 ft 486 kts 122°
2026-05-08 22:29 28.81056 -80.53130 27501 ft 459 kts 113°
2026-05-08 22:29 28.80161 -80.49737 29096 ft 443 kts 109°
2026-05-08 22:29 28.79917 -80.46258 29770 ft 453 kts 75°
2026-05-08 22:30 28.81416 -80.43032 28689 ft 482 kts 44°
2026-05-08 22:30 28.83896 -80.40182 27339 ft 527 kts 37°
2026-05-08 22:30 28.86918 -80.37817 26834 ft 533 kts 17°
2026-05-08 22:30 28.89680 -80.39119 25205 ft 473 kts 294°
2026-05-08 22:31 28.90475 -80.42680 25223 ft 469 kts 275°
2026-05-08 22:31 28.90483 -80.46496 24037 ft 498 kts 264°
2026-05-08 22:31 28.89867 -80.50429 23886 ft 500 kts 257°
2026-05-08 22:31 28.88905 -80.54168 24351 ft 499 kts 245°
2026-05-08 22:32 28.86499 -80.57162 22641 ft 545 kts 214°
2026-05-08 22:32 28.82851 -80.58839 20825 ft 585 kts 199°
2026-05-08 22:32 28.78869 -80.60079 17396 ft 623 kts 200°
2026-05-08 22:32 28.74723 -80.61805 14054 ft 654 kts 208°
2026-05-08 22:33 28.71048 -80.64840 11797 ft 656 kts 225°
2026-05-08 22:33 28.68079 -80.68832 8645 ft 670 kts 234°
2026-05-08 22:33 28.66345 -80.73540 8205 ft 629 kts 269°
2026-05-08 22:33 28.68649 -80.77013 9026 ft 596 kts 350°
2026-05-08 22:34 28.72668 -80.77555 10458 ft 572 kts 355°
2026-05-08 22:34 28.76503 -80.76848 11598 ft 561 kts 26°
2026-05-08 22:34 28.79484 -80.74083 12198 ft 557 kts 51°
2026-05-08 22:34 28.81336 -80.70227 13296 ft 541 kts 73°
2026-05-08 22:35 28.81650 -80.66137 15025 ft 503 kts 100°
2026-05-08 22:35 28.80544 -80.62623 17361 ft 450 kts 129°
2026-05-08 22:35 28.78607 -80.60143 19773 ft 393 kts 144°
2026-05-08 22:35 28.76655 -80.58247 22184 ft 352 kts 148°
2026-05-08 22:36 28.74765 -80.56497 23471 ft 355 kts 148°
2026-05-08 22:36 28.72734 -80.54652 23138 ft 397 kts 148°
2026-05-08 22:36 28.70283 -80.52935 22284 ft 434 kts 164°
2026-05-08 22:36 28.67346 -80.51809 22192 ft 450 kts 171°
2026-05-08 22:37 28.64383 -80.50996 23643 ft 421 kts 171°
2026-05-08 22:37 28.61580 -80.49953 22708 ft 432 kts 180°
2026-05-08 22:37 28.59292 -80.51275 16470 ft 405 kts 250°
2026-05-08 22:37 28.58439 -80.54799 7019 ft 586 kts 253°
2026-05-08 22:38 28.55462 -80.57184 6215 ft 527 kts 181°
2026-05-08 22:38 28.51895 -80.56580 4232 ft 523 kts 158°
2026-05-08 22:38 28.48914 -80.54753 5504 ft 428 kts 140°
2026-05-08 22:38 28.47659 -80.52406 8787 ft 278 kts 90°
2026-05-08 22:39 28.48140 -80.50717 11397 ft 218 kts 70°
2026-05-08 22:39 28.48250 -80.48824 11272 ft 272 kts 115°
2026-05-08 22:39 28.47112 -80.46996 11274 ft 304 kts 157°
2026-05-08 22:39 28.45024 -80.47412 10241 ft 353 kts 218°
2026-05-08 22:40 28.43369 -80.49728 9288 ft 408 kts 251°
2026-05-08 22:40 28.43040 -80.53086 8692 ft 443 kts 268°
2026-05-08 22:40 28.42054 -80.56324 9058 ft 450 kts 233°
2026-05-08 22:40 28.40379 -80.59246 7927 ft 448 kts 265°
2026-05-08 22:41 28.41277 -80.62964 7304 ft 503 kts 302°
2026-05-08 22:41 28.43707 -80.65833 7159 ft 512 kts 324°
2026-05-08 22:41 28.46988 -80.67341 6150 ft 512 kts 348°
2026-05-08 22:41 28.50492 -80.67423 4977 ft 496 kts
2026-05-08 22:42 28.53135 -80.65553 4887 ft 457 kts 82°
2026-05-08 22:42 28.51325 -80.63340 4139 ft 425 kts 184°
2026-05-08 22:42 28.48560 -80.64353 4032 ft 423 kts 206°
2026-05-08 22:42 28.45901 -80.65708 4359 ft 420 kts 202°
2026-05-08 22:43 28.43242 -80.66529 5382 ft 365 kts 181°
2026-05-08 22:43 28.40995 -80.65737 5751 ft 333 kts 148°
2026-05-08 22:43 28.39058 -80.64271 5234 ft 341 kts 150°
2026-05-08 22:43 28.36947 -80.62814 4479 ft 376 kts 153°
2026-05-08 22:44 28.34299 -80.61539 3426 ft 460 kts 167°
2026-05-08 22:44 28.30926 -80.60641 1729 ft 536 kts 163°
2026-05-08 22:44 28.27270 -80.59707 1322 ft 541 kts 180°
2026-05-08 22:44 28.23577 -80.60812 542 ft 575 kts 199°
2026-05-08 22:45 28.20221 -80.60465 1191 ft 456 kts 130°
2026-05-08 22:45 28.20092 -80.57663 1899 ft 369 kts 41°
2026-05-08 22:45 28.22193 -80.56620 1668 ft 292 kts 14°
2026-05-08 22:45 28.23773 -80.56467 1642 ft 188 kts
2026-05-08 22:46 28.24978 -80.56693 1242 ft 164 kts 339°
2026-05-08 22:46 28.25888 -80.57511 792 ft 183 kts 308°
2026-05-08 22:46 28.26331 -80.58839 628 ft 184 kts 273°
2026-05-08 22:46 28.25905 -80.60123 434 ft 176 kts 208°
2026-05-08 22:47 28.24805 -80.60470 205 ft 154 kts 187°
2026-05-08 22:47 28.23840 -80.60805 12 ft 129 kts 194°
2026-05-08 22:47 28.23191 -80.61058 10 ft 64 kts 199°
2026-05-08 22:47 28.22928 -80.61169 11 ft 29 kts 198°
2026-05-08 22:48 28.22857 -80.61108 11 ft 8 kts 109°
2026-05-08 22:48 28.22830 -80.61023 10 ft 14 kts 110°
2026-05-08 22:48 28.22870 -80.60933 11 ft 17 kts 20°
2026-05-08 22:48 28.22995 -80.60882 11 ft 22 kts 20°
2026-05-08 22:49 28.23156 -80.60817 9 ft 27 kts 19°
2026-05-08 22:49 28.23510 -80.60672 7 ft 19 kts 19°
2026-05-08 22:49 28.23645 -80.60617 10 ft 22 kts 20°
2026-05-08 22:50 28.23800 -80.60554 14 ft 25 kts 20°
2026-05-08 22:50 28.23918 -80.60505 17 ft 18 kts 20°
2026-05-08 22:50 28.24051 -80.60451 14 ft 23 kts 20°
2026-05-08 22:50 28.24201 -80.60390 13 ft 20 kts
2026-05-08 22:51 28.24317 -80.60403 13 ft 12 kts 354°
2026-05-08 22:51 28.24396 -80.60413 12 ft 9 kts 354°
2026-05-08 22:51 28.24480 -80.60424 9 ft 10 kts 356°
2026-05-08 22:51 28.24510 -80.60427 8 ft 2 kts 354°
2026-05-08 22:52 28.24523 -80.60429 8 ft 7 kts 352°
2026-05-08 22:52 28.24625 -80.60443 8 ft 19 kts 352°
2026-05-08 22:52 28.24734 -80.60518 9 ft 15 kts 297°
2026-05-08 22:52 28.24780 -80.60629 8 ft 14 kts 294°
2026-05-08 22:53 28.24838 -80.60717 10 ft 15 kts 291°
2026-05-08 22:53 28.24850 -80.60798 12 ft 5 kts 211°
2026-05-08 22:53 28.24819 -80.60811 11 ft 1 kts 198°
2026-05-08 22:53 28.24817 -80.60812 10 ft 0 kts 198°